Orbital Elements at Epoch 2459000.5 (2020-May-31.0) TDB
Reference: JPL 12 (heliocentric ecliptic J2000)
Element | Value | Uncertainty (1-sigma) | Units |
e | .1010349411413605 | 4.6285e-08 | |
a | 2.200322519002938 | 1.4182e-08 | au |
q | 1.978013062803466 | 1.0516e-07 | au |
i | 2.781048720357531 | 7.176e-06 | deg |
node | 10.01668760301621 | 0.00010331 | deg |
peri | 87.44077744572883 | 0.00011181 | deg |
M | 333.316386665399 | 4.5732e-05 | deg |
tp | 2459088.862924322309 (2020-Aug-27.36292432) | 0.00015198 | TDB |
period | 1192.141872134751 3.26 | 1.1526e-05 3.156e-08 | d yr |
n | .3019774813842862 | 2.9196e-09 | deg/d |
Q | 2.42263197520241 | 1.5615e-08 | au |
|
| | Orbit Determination Parameters
Additional Information
|